Miscellaneous Local Product
Issued by NWS North Platte, NE

Home | Current Version | Previous Version | Text Only | Print | Product List | Glossary On
Versions: 1 2 3 4 5 6 7 8 9 10 11 12 13 14 15 16 17 18 19 20 21 22 23 24 25 26 27 28 29 30 31 32 33 34 35 36 37 38 39 40 41 42 43 44 45 46 47 48 49 50
000
AXUS43 KLBF 211710
MISLBF


WESTERN AND NORTH CENTRAL NEBRASKA HOURLY WEATHER ROUNDUP
NATIONAL WEATHER SERVICE NORTH PLATTE NE
1200 PM CDT MON JUL 21 2014

***STATIONS NOT REPORTING VARIABLES SUCH AS SKY/WEATHER OR
PRESSURE ARE PROVIDED BY THE NEBRASKA DEPARTMENT OF
ROADS...RAWS...AND APRS NETWORKS...AND ARE NOT UNDER
NATIONAL WEATHER SERVICE QUALITY CONTROL***

...OBSERVATIONS IN AND NEAR THE EASTERN PANHANDLE OF NEBRASKA...

CITY           SKY/WX    TMP DP  RH WIND       PRES   REMARKS
PINE RIDGE     SUNNY     92  52  25 W9G22     29.91S
CHADRON        SUNNY     98  45  16 W21G30    29.91R HX  94
ALLIANCE       SUNNY     97  45  16 W20       29.99S HX  93
SIDNEY         SUNNY     96  46  18 W8        30.07S HX  92
WHITECLAY        N/A     92  50  23 W16         N/A
RUSHVILLE        N/A    101  43  13 W18         N/A  HX  96
GORDON           N/A    103  55  20 W17         N/A  HX 101
CRESCENT LAKE    N/A     92  52  25 W10         N/A
LISCO            N/A     93  46  19 W9          N/A  HX  90
BIG SPRINGS      N/A     85  62  46 W3          N/A
$$

...OBSERVATIONS IN NORTH CENTRAL NEBRASKA...

CITY           SKY/WX    TMP DP  RH WIND       PRES   REMARKS
VALENTINE      SUNNY     98  56  24 W15G21    29.85S HX  96
THEDFORD       SUNNY     96  57  27 W9        29.92R HX  95
AINSWORTH      MOSUNNY   93  56  29 W6        29.87S HX  91
O`NEILL        PTSUNNY   89  63  41 SW10      29.83R HX  90
BROKEN BOW     MOSUNNY   91  68  46 CALM      29.89S HX  95
BROWNLEE         N/A    109  47  12 W14         N/A  HX 104
SPRINGVIEW       N/A     93  67  42 CALM        N/A  HX  96
DUNNING          N/A     93  60  33 N6          N/A  HX  92
ROSE             N/A     98  65  33 SW3         N/A  HX 100
NEWPORT          N/A     90  68  48 W8          N/A  HX  93
SARGENT          N/A     90  67  46 CALM        N/A  HX  93
COMSTOCK         N/A     97  72  45 W3          N/A  HX 105
CHAMBERS         N/A     93  71  49 S7          N/A  HX 100
$$

...OBSERVATIONS IN SOUTHWEST NEBRASKA AND FAR NORTHEAST COLORADO...

CITY           SKY/WX    TMP DP  RH WIND       PRES   REMARKS
WRAY             N/A     94  47  19 W3        30.03S HX  90
HOLYOKE        FAIR      99  46  16 NE6       30.02S HX  95
IMPERIAL       PTSUNNY   90  59  35 VRB5      29.99S
OGALLALA       SUNNY     94  51  23 NW8       29.98S HX  91
NORTH PLATTE   PTSUNNY   88  63  43 W9        29.93S
MCCOOK         PTSUNNY   87  60  40 W6        29.95R
LEXINGTON      PTSUNNY   92  64  39 W3        29.91S HX  94
PAXTON           N/A     83  62  49 SW3         N/A
SUTHERLAND       N/A     97  62  30 W6          N/A  HX  98
BRADY            N/A     88  66  47 CALM        N/A  HX  90
GOTHENBURG       N/A     90  60  36 CALM        N/A
CALLAWAY         N/A     88  73  61 W6          N/A  HX  96
$$

...NORTH PLATTE AREA...

CITY           SKY/WX    TMP DP  RH WIND       PRES   REMARKS
AIRPORT        PTSUNNY   88  63  43 W9        29.93S
$$

...SOME WEATHER OBSERVATIONS FROM AROUND THE REGION...

CITY           SKY/WX    TMP DP  RH WIND       PRES   REMARKS
DENVER         PTSUNNY   91  41  17 SW8       30.16S
LARAMIE        SUNNY     80  39  23 W22       30.28R
CHEYENNE       MOSUNNY   86  43  22 W10       30.21R
SCOTTSBLUFF    SUNNY     91  52  26 NW8       30.02S
RAPID CITY     MOSUNNY   92  57  30 N10       29.85R HX  90
PIERRE         CLOUDY    81  73  76 E15       29.73F
WINNER         FAIR      96  57  27 SW10      29.79R HX  95
SIOUX FALLS    PTSUNNY   83  75  77 SE13G22   29.81F HX  90
OMAHA          MOSUNNY   88  73  61 S16G24    29.86S HX  95
GRAND ISLAND   PTSUNNY   88  71  57 S7        29.87S HX  94
KANSAS CITY    MOSUNNY   85  74  69 S16       30.00S HX  92
WICHITA        MOSUNNY   87  75  67 S17       30.01S HX  96
HAYS           SUNNY     90  66  45 S15G21    29.96S HX  92
LIBERAL        SUNNY     93  68  43 SW17      30.04S HX  97
GOODLAND       PTSUNNY   91  59  33 VRB3      30.03F HX  90
$$



USA.gov is the U.S. government's official web portal to all federal, state and local government web resources and services.